User: anonymous   Login
Location: Charleville
(26.4021°S, 146.2454°E)
Time: 03:56:26
(UTC+10:00)
Language:

N. Korean satellite - Orbit

View from above orbital plane
View from above orbital plane
View from above satellite
View from above satellite

Ground track
Ground track

The orbit data is extracted from the following two-line orbital elements,

1 39026U 12072A   22019.88520520  .00010266  00000-0  32657-3 0  9997
2 39026  97.2598  12.9250 0032755 335.2168  24.7499 15.32255547506141
Epoch (UTC): 19 January 2022 21:14:41
Eccentricity: 0.0032755
inclination: 97.2598°
perigee height: 446 km
apogee height: 491 km
right ascension of ascending node: 12.9250°
argument of perigee: 335.2168°
revolutions per day: 15.32255547
mean anomaly at epoch: 24.7499°
orbit number at epoch: 50614

The dashed part of the orbit path shows where the satellite is in the earth's shadow,  

DLR